Location: Lansingburgh
(42.7845°N, 73.6696°W)
Time: 07:37:16
(UTC+00:00)

ISS - Visible Passes

Search period start: 12 October 2024 00:00
Search period end: 22 October 2024 00:00
Orbit: 411 x 423 km, 51.6° (Epoch: 12 October)

Date Brightness Start Highest point End Pass type
(mag) Time Alt. Az. Time Alt. Az. Time Alt. Az.
14 Oct -0.7 10:34:54 10° SSE 10:36:36 14° SE 10:38:20 10° E visible
16 Oct -2.2 10:32:54 10° SSW 10:35:58 35° SE 10:39:03 10° ENE visible
17 Oct -1.4 09:44:50 10° S 09:47:24 21° SE 09:49:59 10° E visible
18 Oct -0.9 08:58:04 12° SE 08:58:48 12° SE 09:00:15 10° ESE visible
18 Oct -3.8 10:31:45 10° WSW 10:35:03 84° NW 10:38:24 10° NE visible
19 Oct -3.3 09:44:42 28° SSW 09:46:10 56° SE 09:49:26 10° ENE visible
20 Oct -1.7 08:58:08 27° ESE 08:58:08 27° ESE 09:00:14 10° ENE visible
20 Oct -3.1 10:31:02 12° W 10:33:52 38° NNW 10:37:01 10° NE visible
21 Oct -3.7 09:44:14 52° WNW 09:44:39 58° NNW 09:47:57 10° NE visible
